Waarnemingen

Advertentie
Mijn weer
Cap Bear, Frankrijk (7749): temperatuur & dauwpunt: 15.01.2017 11:00:00 - 21.01.2017 11:00:00 (CET)Cap Bear, Frankrijk (7749): windsnelheid & windstoten: 15.01.2017 11:00:00 - 21.01.2017 11:00:00 (CET)Cap Bear, Frankrijk (7749): windrichting: 15.01.2017 11:00:00 - 21.01.2017 11:00:00 (CET)Cap Bear, Frankrijk (7749): luchtdruk: 15.01.2017 11:00:00 - 21.01.2017 11:00:00 (CET)Cap Bear, Frankrijk (7749): zicht: 15.01.2017 11:00:00 - 21.01.2017 11:00:00 (CET)Cap Bear, Frankrijk (7749): neerslag: 15.01.2017 11:00:00 - 21.01.2017 11:00:00 (CET)
Datum & Tijd tt [°C] td [°C] ff [km/u] ff [kn] fx [km/u] fx [kn] dd ppp [hPa] vv [km] rr [mm]
21.01.2017 11:00:00 6,3 5,4 37 20 54 29 NW 1023,1 - 0,0
21.01.2017 10:00:00 6,1 5,4 44 24 60 33 NW 1022,6 - 0,2
21.01.2017 09:00:00 6,3 5,4 42 23 54 29 NW 1022,6 - 0,2
21.01.2017 08:00:00 6,5 5,6 35 19 46 25 NW 1022,5 - 0,2
21.01.2017 07:00:00 6,9 5,8 32 17 53 28 NW 1022,5 16 0,2
21.01.2017 06:00:00 7,3 6,1 30 16 46 25 NW 1023,0 - 0,0
21.01.2017 05:00:00 9,2 7,0 34 19 44 24 NNO 1023,1 - 0,0
21.01.2017 04:00:00 10,8 6,7 34 18 53 28 ONO 1023,5 15 0,0
21.01.2017 03:00:00 10,5 6,1 38 20 53 29 ONO 1023,3 - 0,0
21.01.2017 02:00:00 10,6 6,5 37 20 54 29 ONO 1023,4 - 0,0
21.01.2017 01:00:00 10,7 7,0 42 23 54 29 O 1023,6 - 0,0
21.01.2017 00:00:00 9,8 7,9 37 20 51 27 ONO 1024,2 - 0,0
20.01.2017 23:00:00 8,9 7,5 29 16 47 25 ONO 1024,7 - 0,2
20.01.2017 22:00:00 9,2 7,1 34 19 51 28 O 1025,0 - 0,0
20.01.2017 21:00:00 9,6 6,5 35 19 45 25 O 1024,6 - 0,8
20.01.2017 20:00:00 9,7 5,5 31 17 53 29 O 1024,5 - 0,0
20.01.2017 19:00:00 10,2 8,1 35 19 54 29 O 1024,0 5 0,0
20.01.2017 18:00:00 9,7 8,5 21 11 45 24 NO 1024,0 - 0,0
20.01.2017 17:00:00 7,5 6,6 21 12 38 20 N 1023,8 - 0,0
20.01.2017 16:00:00 6,5 6,4 29 15 37 20 NW 1024,2 - 0,4
20.01.2017 15:00:00 6,5 6,4 29 15 44 24 WNW 1024,3 - 0,0
20.01.2017 14:00:00 5,9 5,8 32 17 45 24 WNW 1024,6 - 0,0
20.01.2017 13:00:00 5,8 5,7 29 16 40 21 WNW 1025,4 5 0,0
20.01.2017 12:00:00 5,3 5,3 26 14 48 26 WNW 1026,0 - 0,4
20.01.2017 11:00:00 5,0 4,9 35 19 46 25 WNW 1026,2 - 0,4
20.01.2017 10:00:00 4,9 4,6 34 18 45 24 NW 1025,9 - 1,2
20.01.2017 09:00:00 4,7 4,3 36 19 48 26 NW 1025,5 - 0,2
20.01.2017 08:00:00 4,8 4,4 32 18 48 26 NW 1025,5 - 1,6
20.01.2017 07:00:00 4,3 3,6 40 22 50 27 NW 1025,4 8 0,4
20.01.2017 06:00:00 4,4 3,7 36 19 51 27 NW 1025,4 - 0,6
20.01.2017 05:00:00 4,8 3,1 35 19 53 28 NW 1025,6 - 1,2
20.01.2017 04:00:00 4,9 2,8 37 20 49 26 NW 1026,0 - 0,0
20.01.2017 03:00:00 5,2 2,5 35 19 48 26 NW 1026,2 5 1,6
20.01.2017 02:00:00 6,2 -0,3 38 21 46 25 NW 1025,6 - 0,0
20.01.2017 01:00:00 6,5 0,2 32 18 48 26 NW 1025,9 - 0,0
20.01.2017 00:00:00 6,8 0,7 30 16 42 23 NNW 1026,6 - 0,0
19.01.2017 23:00:00 6,8 -3,7 26 14 36 19 NNW 1026,7 - 0,0
19.01.2017 22:00:00 6,2 -1,9 24 13 36 20 NW 1026,5 - 0,0
19.01.2017 21:00:00 6,3 -2,3 22 12 34 18 NNW 1026,6 - 0,0
19.01.2017 20:00:00 5,9 -4,3 29 15 33 18 NW 1025,9 - 0,0
19.01.2017 19:00:00 5,9 -3,5 27 15 34 18 NW 1025,9 - 0,0
19.01.2017 18:00:00 6,0 -3,1 25 14 40 22 NW 1025,8 - 0,0
19.01.2017 17:00:00 6,2 -2,4 30 16 40 22 NNW 1025,5 - 0,0
19.01.2017 16:00:00 5,7 -1,9 33 18 43 23 NNW 1025,3 20 0,0
19.01.2017 15:00:00 5,1 -1,8 36 19 43 23 NNW 1025,3 - 0,0
19.01.2017 14:00:00 4,7 -3,1 33 18 42 23 N 1025,7 - 0,0
19.01.2017 13:00:00 4,3 -3,5 32 17 44 24 NNW 1026,2 15 0,0
19.01.2017 12:00:00 3,9 -5,6 32 17 42 23 NNW 1026,6 - 0,0
19.01.2017 11:00:00 3,0 -7,0 27 15 38 21 NW 1026,6 - 0,0
19.01.2017 10:00:00 2,1 -6,0 26 14 42 23 NW 1026,5 - 0,0
19.01.2017 09:00:00 1,1 -6,3 29 16 47 25 NW 1026,2 - 0,0
19.01.2017 08:00:00 0,2 -6,2 35 19 53 28 NW 1025,4 - 0,0
19.01.2017 07:00:00 -0,2 -5,8 36 19 52 28 NW 1025,0 15 0,0
19.01.2017 06:00:00 0,1 -5,9 40 22 62 33 NW 1024,7 - 0,0
19.01.2017 05:00:00 0,2 -5,0 45 24 59 32 NW 1024,6 - 0,0
19.01.2017 04:00:00 1,0 -5,3 46 25 60 32 NW 1024,7 15 0,0
19.01.2017 03:00:00 0,1 -6,3 37 20 54 29 NW 1024,9 - 0,0
19.01.2017 02:00:00 1,2 -5,3 35 19 46 25 NW 1024,6 - 0,0
19.01.2017 01:00:00 1,0 -6,6 32 17 53 29 NW 1024,6 - 0,0
19.01.2017 00:00:00 1,0 -6,6 36 20 61 33 NW 1024,3 - 0,0
18.01.2017 23:00:00 1,4 -6,0 50 27 65 35 NW 1023,7 - 0,0
18.01.2017 22:00:00 1,9 -5,5 42 23 76 41 NW 1023,4 - 0,0
18.01.2017 21:00:00 1,6 -6,2 44 24 68 37 NW 1023,0 - 0,0
18.01.2017 20:00:00 2,3 -5,8 42 23 69 38 NW 1023,0 - 0,0
18.01.2017 19:00:00 3,0 -5,4 54 29 66 35 NW 1022,4 - 0,0
18.01.2017 18:00:00 3,3 -6,4 46 25 66 35 NW 1022,4 - 0,0
18.01.2017 17:00:00 3,8 -6,8 53 29 67 36 NW 1021,9 - 0,0
18.01.2017 16:00:00 4,3 -5,8 51 28 62 34 NNW 1021,5 20 0,0
18.01.2017 15:00:00 4,3 -5,8 46 25 58 31 NW 1021,8 - 0,0
18.01.2017 14:00:00 3,8 -6,2 41 22 58 31 NW 1021,8 - 0,0
18.01.2017 13:00:00 3,3 -7,5 44 24 61 33 NW 1022,5 20 0,0
18.01.2017 12:00:00 2,6 -6,0 43 23 66 35 NW 1022,8 - 0,0
18.01.2017 11:00:00 1,6 -6,0 49 26 75 40 NW 1022,6 - 0,0
18.01.2017 10:00:00 0,9 -7,1 50 27 76 41 NW 1021,7 - 0,0
18.01.2017 09:00:00 0,5 -6,8 50 27 74 40 NW 1021,4 - 0,0
18.01.2017 08:00:00 0,3 -6,1 43 23 75 41 NW 1021,3 - 0,0
18.01.2017 07:00:00 0,5 -6,8 44 24 74 40 NW 1020,9 15 0,0
18.01.2017 06:00:00 0,4 -6,7 50 27 79 43 NW 1020,6 - 0,0
18.01.2017 05:00:00 0,6 -6,7 49 26 83 45 NW 1020,8 - 0,0
18.01.2017 04:00:00 0,9 -7,1 56 30 81 44 NW 1021,0 - 0,0
18.01.2017 03:00:00 1,4 -5,1 67 36 86 46 NNW 1020,5 - 0,0
18.01.2017 02:00:00 1,5 -4,8 66 35 82 45 NNW 1020,6 - 0,0
18.01.2017 01:00:00 2,0 -3,9 69 37 96 52 NNW 1020,4 - 0,0
18.01.2017 00:00:00 2,4 -3,5 84 46 105 57 NNW 1019,7 - 0,0
17.01.2017 23:00:00 2,9 -4,8 75 41 103 56 NNW 1019,7 - 0,0
17.01.2017 22:00:00 3,3 -4,4 82 45 111 60 NNW 1019,3 - 0,0
17.01.2017 21:00:00 3,3 -4,7 88 47 108 58 NNW 1018,6 - 0,0
17.01.2017 20:00:00 3,1 -5,1 89 48 113 61 NNW 1018,5 - 0,0
17.01.2017 19:00:00 2,9 -4,6 84 45 109 59 NW 1018,2 - 0,0
17.01.2017 18:00:00 2,7 -6,4 85 46 127 69 NW 1017,5 - 0,0
17.01.2017 17:00:00 3,2 -5,5 90 49 119 64 NW 1017,4 - 0,0
17.01.2017 16:00:00 3,3 -6,1 90 48 114 62 NNW 1017,3 15 0,0
17.01.2017 15:00:00 3,3 -4,9 89 48 121 65 NNW 1016,6 - 0,0
17.01.2017 14:00:00 3,0 -4,2 96 52 120 65 NNW 1016,7 - 0,0
17.01.2017 13:00:00 2,7 -5,9 100 54 124 67 NW 1016,7 15 0,0
17.01.2017 12:00:00 2,4 -5,3 96 52 119 64 NW 1017,4 - 0,0
17.01.2017 11:00:00 2,2 -4,8 82 44 108 58 NW 1018,4 - 0,0
17.01.2017 10:00:00 2,1 -4,4 83 45 109 59 NNW 1017,9 20 0,0
17.01.2017 09:00:00 1,9 -4,8 82 44 104 56 NNW 1016,8 - 0,0
17.01.2017 08:00:00 2,7 -3,2 92 50 116 62 NNW 1015,4 - 0,0
17.01.2017 07:00:00 2,5 -4,5 79 43 99 54 NNW 1015,4 20 0,0
17.01.2017 06:00:00 3,0 -4,9 76 41 108 59 NNW 1016,0 - 0,0
17.01.2017 05:00:00 2,5 -4,7 80 43 111 60 NNW 1015,7 - 0,0
17.01.2017 04:00:00 3,2 -4,1 80 43 112 61 NNW 1016,1 15 0,0
17.01.2017 03:00:00 3,3 -3,3 89 48 117 63 NW 1016,0 - 0,0
17.01.2017 02:00:00 3,2 -3,4 88 47 117 63 NW 1015,6 - 0,0
17.01.2017 01:00:00 4,0 -5,2 87 47 110 60 NNW 1015,8 - 0,0
17.01.2017 00:00:00 4,5 -4,0 88 48 107 58 NNW 1016,4 - 0,0
16.01.2017 23:00:00 4,9 -5,2 85 46 114 61 NNW 1016,2 - 0,0
16.01.2017 22:00:00 5,7 -4,8 95 51 119 65 NNW 1015,4 - 0,0
16.01.2017 21:00:00 6,8 -1,6 103 56 120 65 N 1014,2 - 0,0
16.01.2017 20:00:00 7,2 -1,2 106 57 134 72 N 1013,3 - 0,0
16.01.2017 19:00:00 8,0 0,2 102 55 118 64 N 1012,4 20 0,0
16.01.2017 18:00:00 8,7 3,3 92 50 109 59 NNW 1012,9 - 0,0
16.01.2017 17:00:00 9,3 3,7 87 47 106 57 NNW 1013,1 20 0,0
16.01.2017 16:00:00 9,3 3,3 77 42 98 53 N 1012,7 20 0,0
16.01.2017 15:00:00 9,6 3,3 79 43 100 54 N 1013,1 - 0,0
16.01.2017 14:00:00 9,9 4,5 78 42 93 50 N 1013,2 - 0,0
16.01.2017 13:00:00 9,5 4,7 77 41 94 51 N 1014,4 - 0,0
16.01.2017 12:00:00 9,9 4,7 77 42 90 49 N 1015,1 - 0,0
16.01.2017 11:00:00 9,6 4,6 68 37 84 45 N 1015,6 - 0,0
16.01.2017 10:00:00 9,3 5,5 54 29 79 43 NNW 1016,5 20 0,0
16.01.2017 09:00:00 8,7 4,9 48 26 74 40 NNW 1016,0 - 0,0
16.01.2017 08:00:00 8,0 4,4 40 22 52 28 NNW 1017,0 - 0,0
16.01.2017 07:00:00 7,4 3,3 33 18 64 34 NW 1017,1 20 0,0
16.01.2017 06:00:00 7,3 3,0 40 22 56 30 NW 1017,2 - 0,0
16.01.2017 05:00:00 7,4 3,4 41 22 50 27 NNW 1018,1 - 0,0
16.01.2017 04:00:00 7,1 3,0 44 24 59 32 NNW 1018,6 20 0,0
16.01.2017 03:00:00 7,2 3,1 48 26 60 33 NNW 1018,9 - 0,0
16.01.2017 02:00:00 7,2 2,9 49 26 58 32 NNW 1019,2 - 0,0
16.01.2017 01:00:00 6,7 2,8 41 22 55 30 NNW 1020,2 - 0,0
16.01.2017 00:00:00 6,5 2,8 46 25 74 40 NNW 1020,5 - 0,0
15.01.2017 23:00:00 6,6 2,7 63 34 78 42 NNW 1019,9 - 0,0
15.01.2017 22:00:00 6,5 2,2 66 36 78 42 NNW 1020,3 - 0,0
15.01.2017 21:00:00 6,9 2,0 70 38 93 50 NNW 1020,4 - 0,0
15.01.2017 20:00:00 6,9 2,2 67 36 91 49 NNW 1021,3 - 0,0
15.01.2017 19:00:00 6,9 2,6 84 45 103 55 NNW 1020,0 - 0,0
15.01.2017 18:00:00 7,0 1,3 88 48 111 60 NNW 1019,4 - 0,0
15.01.2017 17:00:00 7,5 -0,7 81 44 110 59 NNW 1019,7 - 0,0
15.01.2017 16:00:00 7,5 -1,5 87 47 111 60 NNW 1019,7 20 0,0
15.01.2017 15:00:00 7,6 -0,9 83 45 104 56 NNW 1019,8 - 0,0
15.01.2017 14:00:00 7,8 -1,2 74 40 100 54 NNW 1019,8 - 0,0
15.01.2017 13:00:00 7,5 0,2 80 43 107 58 NNW 1020,7 - 0,0
15.01.2017 12:00:00 7,1 -0,6 90 49 119 64 NNW 1019,7 - 0,0
15.01.2017 11:00:00 6,9 -0,6 93 50 117 63 NNW 1019,0 - 0,0

tt = temperatuur
td = dauwpunt
ff = windsnelheid
fx = windstoten
dd = windrichting
ppp = luchtdruk
vv = zicht
rr = neerslag

Weerstations in de omgeving